Regional Weather Roundup
Issued by NWS Charleston, WV

Home | Current Version | Previous Version | Text Only | Print | Product List | Glossary Off
Versions: 1 2 3 4 5 6 7 8 9 10 11 12 13 14 15 16 17 18 19 20 21 22 23 24 25 26 27

000
ASUS41 KRLX 140710
RWRRLX
West Virginia Regional Weather Roundup
National Weather Service Charleston WV
200 AM EST THU DEC 14 2017

Note: "fair" indicates few or no clouds below 12,000 feet with no
significant weather and/or obstructions to visibility.

WVZ003-140800-
Northern Panhandle of West Virginia

CITY           SKY/WX    TMP DP  RH WIND       PRES   REMARKS
WHEELING       LGT SNOW  32  27  81 W18G28    29.43R
$$

WVZ009-140800-
Northwest West Virginia

CITY           SKY/WX    TMP DP  RH WIND       PRES   REMARKS
PARKERSBURG    CLOUDY    38  29  70 W14G43    29.55R
$$

WVZ006-140800-
Western West Virginia

CITY           SKY/WX    TMP DP  RH WIND       PRES   REMARKS
HUNTINGTON     CLOUDY    45  28  51 W17G30    29.58R
$$

WVZ015-140800-
West Central West Virginia

CITY           SKY/WX    TMP DP  RH WIND       PRES   REMARKS
CHARLESTON     CLOUDY    46  20  35 SW18G28   29.53R
$$

WVZ022-031-140800-
North Central West Virginia

CITY           SKY/WX    TMP DP  RH WIND       PRES   REMARKS
CLARKSBURG     LGT RAIN  42  24  49 W16G31    29.45R
MORGANTOWN     LGT RAIN  38  25  59 W12G24    29.44R
$$

WVZ025-035-042-045-140800-
Southern West Virginia

CITY           SKY/WX    TMP DP  RH WIND       PRES   REMARKS
BECKLEY        CLOUDY    36  17  46 SW12G22   29.53S
LOGAN          CLOUDY    43  23  45 W18G29    29.57R
BLUEFIELD      CLOUDY    34  16  47 W25G37    29.55R
LEWISBURG      CLOUDY    38  18  44 SW12G18   29.52R
$$

WVZ047-140800-
Northern Mountains of West Virginia

CITY           SKY/WX    TMP DP  RH WIND       PRES   REMARKS
ELKINS         CLOUDY    40  22  48 SW17G31   29.44S
$$

WVZ052-140800-
Eastern Panhandle of West Virginia

CITY           SKY/WX    TMP DP  RH WIND       PRES   REMARKS
MARTINSBURG    CLOUDY    27  24  89 CALM      29.46F
PETERSBURG     CLOUDY    40  27  61 SW6       29.41F
$$




USA.gov is the U.S. government's official web portal to all federal, state and local government web resources and services.